"1994/01/01", 5.9, 6.2, 5.3
"1994/01/02", 5.7, 6.2, 5.4
"1994/01/03", 5.7, 6.0, 5.3
"1994/01/04", 5.7, 6.8, 5.2
"1994/01/05", 5.5, 6.0, 4.8
"1994/01/06", 5.4, 5.8, 5.1
"1994/01/07", 5.0, 5.9, 4.7
"1994/01/08", 4.7, 4.8, 4.4
"1994/01/09", 4.7, 5.6, 3.3
"1994/01/10", 5.0, 5.3, 4.6
"1994/01/11", 5.2, 5.3, 5.1
"1994/01/12", 5.2, 5.7, 4.7
"1994/01/13", 5.5, 5.7, 5.3
"1994/01/14", 5.2, 5.5, 4.9
"1994/01/15", 4.8, 5.3, 4.3
"1994/01/16", 5.0, 5.8, 4.1
"1994/01/17", 5.3, 6.4, 4.7
"1994/01/18", 5.8, 6.6, 5.4
"1994/01/19", 5.6, 6.2, 5.2
"1994/01/20", 5.1, 5.5, 4.4
"1994/01/21", 4.8, 5.0, 4.6
"1994/01/22", 4.6, 5.4, 3.5
"1994/01/23", 4.6, 5.4, 4.1
"1994/01/24", 4.2, 4.6, 3.3
"1994/01/25", 4.3, 4.9, 3.5
"1994/01/26", 4.8, 5.7, 3.8
"1994/01/27", 4.7, 5.4, 4.2
"1994/01/28", 4.6, 4.8, 4.2
"1994/01/29", 3.9, 4.3, 3.2
"1994/01/30", 3.5, 4.0, 2.3
"1994/01/31", 3.6, 4.4, 2.9
"1994/02/01", 3.7, 3.8, 3.5
"1994/02/02", 3.5, 4.1, 2.8
"1994/02/03", 2.9, 3.5, 1.6
"1994/02/04", 3.0, 4.1, 2.4
"1994/02/05", 3.2, 4.1, 2.2
"1994/02/06", 3.9, 4.8, 3.1
"1994/02/07", 4.3, 5.7, 3.6
"1994/02/08", 4.4, 4.9, 4.0
"1994/02/09", 5.0, 6.3, 4.4
"1994/02/10", 4.9, 5.8, 4.3
"1994/02/11", 4.4, 5.1, 3.8
"1994/02/12", 3.8, 4.3, 2.3
"1994/02/13", 3.3, 4.1, 1.8
"1994/02/14", 3.4, 4.4, 2.7
"1994/02/15", 3.2, 3.9, 2.4
"1994/02/16", 4.2, 5.4, 3.5
"1994/02/17"," *"," *"," *"
"1994/02/18"," *"," *"," *"
"1994/02/19", 5.3, 6.4, 4.6
"1994/02/20", 5.9, 8.1, 4.8
"1994/02/21", 5.8, 6.8, 5.3
"1994/02/22", 5.1, 6.1, 4.4
"1994/02/23", 4.8, 5.6, 3.7
"1994/02/24", 4.4, 5.3, 3.2
"1994/02/25", 4.8, 5.8, 4.0
"1994/02/26", 5.2, 6.5, 4.3
"1994/02/27", 5.8, 7.3, 5.0
"1994/02/28", 6.4, 8.8, 5.3
"1994/03/01", 6.7, 8.1, 5.4
"1994/03/02", 6.2, 6.7, 5.8
"1994/03/03", 6.1, 6.7, 5.7
"1994/03/04", 6.2, 7.1, 5.9
"1994/03/05", 6.4, 7.2, 6.0
"1994/03/06", 6.5, 7.3, 5.8
"1994/03/07", 6.2, 6.3, 6.1
"1994/03/08", 6.4, 6.8, 6.1
"1994/03/09", 6.9, 7.8, 6.2
"1994/03/10", 6.4, 6.6, 6.1
"1994/03/11", 6.6, 7.6, 6.1
"1994/03/12", 6.8, 7.4, 6.2
"1994/03/13", 6.7, 6.9, 6.5
"1994/03/14", 6.7, 6.9, 6.6
"1994/03/15", 7.0, 7.8, 6.3
"1994/03/16", 7.2, 8.1, 6.4
"1994/03/17", 7.5, 8.2, 6.7
"1994/03/18", 7.6, 8.3, 7.2
"1994/03/19", 8.0, 9.1, 7.2
"1994/03/20", 7.8, 8.2, 7.4
"1994/03/21", 8.1, 9.3, 7.2
"1994/03/22", 7.9, 8.6, 7.3
"1994/03/23", 7.8, 8.1, 7.4
"1994/03/24", 8.4, 9.6, 7.8
"1994/03/25", 9.1,10.3, 8.2
"1994/03/26", 9.1, 9.9, 8.4
"1994/03/27", 9.5,11.4, 8.5
"1994/03/28", 9.7,10.4, 8.9
"1994/03/29",10.3,11.9, 9.4
"1994/03/30",10.3,12.0, 9.7
"1994/03/31",11.0,12.8, 9.6
"1994/04/01",12.1,14.0,10.9
"1994/04/02",12.4,13.1,11.8
"1994/04/03",11.6,12.9,10.8
"1994/04/04",12.1,13.1,11.3
"1994/04/05",13.5,17.0,11.5
"1994/04/06",13.4,16.1,11.6
"1994/04/07",14.6,16.4,13.1
"1994/04/08"," *"," *"," *"
"1994/04/09",13.7,15.1,12.7
"1994/04/10",13.5,15.7,12.3
"1994/04/11",13.0,13.6,12.5
"1994/04/12",13.6,14.9,12.6
"1994/04/13"," *"," *"," *"
"1994/04/14",13.5,14.9,12.8
"1994/04/15",14.3,16.9,13.0
"1994/04/16",15.1,17.0,13.9
"1994/04/17",15.2,16.1,14.6
"1994/04/18",15.0,15.6,14.6
"1994/04/19",16.4,19.7,14.6
"1994/04/20",15.2,16.9,14.7
"1994/04/21"," *"," *"," *"
"1994/04/22",16.5,17.7,15.6
"1994/04/23",16.4,17.1,15.8
"1994/04/24",16.4,16.7,16.3
"1994/04/25",17.1,18.3,16.3
"1994/04/26",17.2,18.0,16.8
"1994/04/27",17.0,17.8,16.5
"1994/04/28",17.0,17.3,16.8
"1994/04/29"," *"," *"," *"
"1994/04/30",17.7,18.8,17.1
"1994/05/01",16.9,17.3,16.5
"1994/05/02",16.3,16.5,15.9
"1994/05/03"," *"," *"," *"
"1994/05/04",16.1,16.6,15.4
"1994/05/05",17.1,18.1,16.5
"1994/05/06",17.7,19.3,16.7
"1994/05/07",18.1,19.6,17.0
"1994/05/08",18.4,19.4,17.9
"1994/05/09",18.5,19.8,17.9
"1994/05/10",18.7,19.6,17.7
"1994/05/11"," *"," *"," *"
"1994/05/12",18.6,19.0,18.0
"1994/05/13",18.7,20.0,17.6
"1994/05/14",19.2,21.2,18.3
"1994/05/15",18.8,18.9,18.6
"1994/05/16",20.1,22.0,18.8
"1994/05/17"," *"," *"," *"
"1994/05/18"," *"," *"," *"
"1994/05/19",19.2,19.9,18.8
"1994/05/20",19.0,19.9,18.6
"1994/05/21",19.5,20.9,18.1
"1994/05/22",19.6,20.5,19.1
"1994/05/23",20.8,23.5,19.0
"1994/05/24",21.0,22.6,20.0
"1994/05/25",21.4,22.5,20.3
"1994/05/26",21.3,21.9,20.6
"1994/05/27",21.2,22.1,20.5
"1994/05/28",21.2,21.8,20.8
"1994/05/29",21.9,24.2,20.7
"1994/05/30",22.5,24.7,21.4
"1994/05/31",22.7,24.0,21.9
"1994/06/01",22.1,22.5,21.9
"1994/06/02",22.4,23.7,21.6
"1994/06/03",23.1,25.0,21.9
"1994/06/04",22.9,23.5,22.5
"1994/06/05",23.6,25.2,22.8
"1994/06/06",22.4,23.2,21.8
"1994/06/07",21.5,21.8,21.3
"1994/06/08",21.9,23.0,21.1
"1994/06/09",21.6,21.8,21.5
"1994/06/10",23.1,26.3,21.4
"1994/06/11",23.1,25.0,22.4
"1994/06/12",23.0,23.4,22.5
"1994/06/13",23.4,24.0,22.9
"1994/06/14",23.5,25.4,22.7
"1994/06/15",24.0,25.3,22.6
"1994/06/16",24.2,25.9,23.3
"1994/06/17",24.9,27.1,23.4
"1994/06/18",24.4,25.1,24.0
"1994/06/19",22.8,24.2,21.1
"1994/06/20",21.0,21.3,20.6
"1994/06/21",21.4,22.4,20.5
"1994/06/22",21.9,23.5,21.0
"1994/06/23",21.7,22.2,21.4
"1994/06/24",22.7,23.7,21.5
"1994/06/25",22.2,23.3,21.7
"1994/06/26",22.0,22.6,21.5
"1994/06/27"," *"," *"," *"
"1994/06/28",23.3,25.5,22.0
"1994/06/29",21.9,22.2,21.6
"1994/06/30",22.7,24.4,21.9
"1994/07/01",22.6,23.2,22.4
"1994/07/02"," *"," *"," *"
"1994/07/03"," *"," *"," *"
"1994/07/04"," *"," *"," *"
"1994/07/05",25.8,29.0,23.5
"1994/07/06",25.8,27.3,24.9
"1994/07/07",25.2,25.5,25.0
"1994/07/08",25.6,26.8,24.9
"1994/07/09",25.8,26.3,25.5
"1994/07/10",25.6,26.2,25.2
"1994/07/11",26.2,27.5,25.1
"1994/07/12",26.4,27.0,26.0
"1994/07/13",26.5,27.6,26.0
"1994/07/14",26.9,28.0,25.8
"1994/07/15",28.1,30.5,26.3
"1994/07/16",28.4,30.1,27.0
"1994/07/17",28.8,30.5,27.7
"1994/07/18",27.4,28.4,26.7
"1994/07/19",27.2,27.7,26.9
"1994/07/20",27.9,30.5,26.9
"1994/07/21",28.3,30.5,27.0
"1994/07/22",28.4,29.8,27.5
"1994/07/23",28.9,30.5,27.6
"1994/07/24",29.1,30.4,28.1
"1994/07/25",29.6,30.6,28.6
"1994/07/26",29.6,30.2,29.0
"1994/07/27",29.9,31.3,29.0
"1994/07/28",29.3,29.9,29.0
"1994/07/29",28.5,29.0,28.0
"1994/07/30",28.9,30.7,27.8
"1994/07/31",29.0,29.8,28.4
"1994/08/01",30.2,31.9,28.5
"1994/08/02",30.6,32.2,29.6
"1994/08/03",30.9,32.6,29.8
"1994/08/04",31.2,32.5,30.2
"1994/08/05",30.9,32.7,30.2
"1994/08/06",30.6,32.0,29.8
"1994/08/07",31.3,33.5,29.8
"1994/08/08",31.3,32.5,30.6
"1994/08/09",30.9,31.6,30.4
"1994/08/10",30.6,31.5,30.0
"1994/08/11",30.4,31.2,29.9
"1994/08/12",30.4,30.9,29.6
"1994/08/13",30.3,31.0,29.7
"1994/08/14",29.9,30.4,29.4
"1994/08/15",30.1,31.8,29.1
"1994/08/16",30.5,32.3,29.3
"1994/08/17",30.6,32.1,29.6
"1994/08/18",30.4,31.4,29.5
"1994/08/19",30.0,31.1,29.3
"1994/08/20",29.2,29.9,28.8
"1994/08/21",27.9,28.8,26.6
"1994/08/22",26.7,27.1,26.4
"1994/08/23",26.6,27.1,26.4
"1994/08/24",26.6,27.1,26.1
"1994/08/25",27.0,28.3,26.1
"1994/08/26",27.9,29.8,26.8
"1994/08/27",27.8,28.6,27.3
"1994/08/28",28.9,31.9,27.4
"1994/08/29",29.1,31.4,27.9
"1994/08/30",29.2,31.1,28.1
"1994/08/31",28.9,29.5,28.5
"1994/09/01",29.2,31.3,28.3
"1994/09/02",28.7,29.5,27.9
"1994/09/03",28.7,29.6,28.1
"1994/09/04",28.7,30.2,27.8
"1994/09/05",28.8,30.4,27.7
"1994/09/06",28.4,28.9,27.9
"1994/09/07",28.4,29.4,27.9
"1994/09/08",28.4,29.3,27.8
"1994/09/09",28.7,30.0,28.0
"1994/09/10",28.3,28.7,27.8
"1994/09/11",28.4,29.0,28.0
"1994/09/12",27.7,28.2,27.0
"1994/09/13",26.6,27.4,25.5
"1994/09/14",25.0,25.5,24.8
"1994/09/15",24.5,24.8,24.4
"1994/09/16",24.7,25.4,24.3
"1994/09/17",24.7,25.0,24.5
"1994/09/18",24.7,25.1,24.4
"1994/09/19"," *"," *"," *"
"1994/09/20",25.7,27.2,24.5
"1994/09/21",25.6,26.2,25.1
"1994/09/22",24.8,25.2,24.4
"1994/09/23",24.6,25.5,24.0
"1994/09/24",24.0,24.4,23.7
"1994/09/25",23.8,24.4,23.5
"1994/09/26",23.5,23.8,23.2
"1994/09/27",22.9,23.2,22.6
"1994/09/28",22.5,22.6,22.1
"1994/09/29",22.2,22.6,21.8
"1994/09/30",23.2,24.1,22.5
"1994/10/01",23.6,24.1,23.3
"1994/10/02",23.1,23.3,22.9
"1994/10/03",22.8,23.1,22.5
"1994/10/04",22.4,22.7,22.0
"1994/10/05",22.5,23.0,21.9
"1994/10/06",23.1,24.0,22.5
"1994/10/07",22.9,24.1,22.3
"1994/10/08",22.4,22.6,22.2
"1994/10/09",22.1,22.4,21.8
"1994/10/10",22.0,22.1,21.7
"1994/10/11",21.7,21.9,21.4
"1994/10/12",21.6,22.4,21.2
"1994/10/13",22.2,22.9,21.6
"1994/10/14",22.2,22.8,21.8
"1994/10/15",22.0,22.6,21.5
"1994/10/16",21.8,22.4,21.2
"1994/10/17",21.5,22.0,21.3
"1994/10/18"," *"," *"," *"
"1994/10/19",20.7,21.0,20.2
"1994/10/20",20.8,22.0,20.5
"1994/10/21",19.5,20.5,18.8
"1994/10/22",19.0,19.3,18.5
"1994/10/23",19.2,20.1,18.6
"1994/10/24",18.4,19.0,17.9
"1994/10/25",17.5,17.8,17.3
"1994/10/26",17.2,17.3,17.0
"1994/10/27",17.2,17.5,17.0
"1994/10/28",17.4,17.5,17.1
"1994/10/29",17.6,18.0,17.5
"1994/10/30",17.6,17.8,17.4
"1994/10/31",17.4,17.6,17.0
"1994/11/01",16.6,17.0,16.4
"1994/11/02",16.5,17.0,15.9
"1994/11/03",16.3,16.5,15.9
"1994/11/04",16.5,17.9,15.3
"1994/11/05",16.2,16.5,15.6
"1994/11/06",15.9,16.1,15.6
"1994/11/07",15.8,16.1,15.4
"1994/11/08",14.6,15.4,14.1
"1994/11/09",14.9,16.4,13.4
"1994/11/10",16.0,17.7,14.6
"1994/11/11",16.0,17.5,15.0
"1994/11/12",15.8,16.7,15.1
"1994/11/13",15.8,17.3,15.1
"1994/11/14",14.8,15.3,14.2
"1994/11/15",13.7,14.2,13.0
"1994/11/16",12.9,13.9,12.3
"1994/11/17",12.7,13.3,11.9
"1994/11/18",13.3,14.1,12.7
"1994/11/19",14.0,15.2,13.2
"1994/11/20",13.8,13.9,13.6
"1994/11/21",13.8,14.4,13.6
"1994/11/22",13.3,13.6,13.1
"1994/11/23",12.7,13.1,12.3
"1994/11/24",12.0,12.3,10.7
"1994/11/25",11.8,12.4,11.4
"1994/11/26",11.6,11.9,11.3
"1994/11/27",11.4,11.8,10.5
"1994/11/28",11.2,11.7,10.2
"1994/11/29",11.5,12.6,10.6
"1994/11/30",11.4,11.9,11.1
"1994/12/01"," *"," *"," *"
"1994/12/02"," *"," *"," *"
"1994/12/03",11.6,12.5,11.1
"1994/12/04",11.2,11.7,10.7
"1994/12/05",10.7,11.1,10.1
"1994/12/06", 9.9,10.5, 8.5
"1994/12/07", 9.8,10.2, 8.9
"1994/12/08",10.0,10.6, 9.1
"1994/12/09", 9.9,10.1, 9.6
"1994/12/10", 9.1, 9.8, 8.5
"1994/12/11", 8.5, 8.9, 8.1
"1994/12/12", 8.7, 9.4, 8.1
"1994/12/13", 9.2, 9.8, 9.1
"1994/12/14", 9.1, 9.5, 8.4
"1994/12/15", 8.9, 9.4, 8.6
"1994/12/16", 8.0, 8.6, 6.4
"1994/12/17", 7.1, 7.7, 6.7
"1994/12/18", 7.0, 7.9, 6.2
"1994/12/19", 6.4, 6.9, 5.2
"1994/12/20", 5.7, 6.3, 4.9
"1994/12/21", 6.1, 7.2, 5.5
"1994/12/22", 6.3, 7.1, 5.6
"1994/12/23", 6.8, 8.1, 5.8
"1994/12/24", 6.6, 7.4, 5.9
"1994/12/25", 6.5, 7.0, 6.0
"1994/12/26", 6.4, 6.7, 6.2
"1994/12/27", 6.5, 6.9, 6.2
"1994/12/28", 6.9, 7.2, 6.7
"1994/12/29", 6.9, 7.3, 6.6
"1994/12/30", 6.8, 7.2, 6.3
"1994/12/31", 6.4, 6.6, 6.3
